Location: Unspecified
(0.0000°N, 0.0000°E)
Time: 12:06:46
(UTC+00:00)

NUDT-PHONESAT - Pass Details

Date: 17 December 2017
Orbit: 494 x 511 km, 97.4° (Epoch: 26 April)

Event Time Altitude Azimuth Distance (km) Brightness Sun altitude
Rises 18:50:32 0° 204° (SSW) 2,579 ? -12.4°
Reaches altitude 10° 18:53:48 10° 236° (WSW) 1,697 ? -13.2°
Maximum altitude 18:55:10 12° 259° (WSW) 1,588 ? -13.5°
Drops below altitude 10° 18:56:32 10° 281° (W) 1,698 ? -13.8°
Sets 18:59:50 0° 314° (NW) 2,583 ? -14.5°
